[[{"header":{"parameterUnit":"m.s-1","parameterCategory":2,"la1":30.2991,"la2":30.254,"lo1":-89.0895,"lo2":-89.0444,"dy":0.0017,"dx":0.0017,"nx":28,"ny":28,"refTime":"2024-06-25T03:00:00:Z","depth":"0","parameterNumber":2,"parameterNumberName":"U-component_of_CURRENTS"},"data":[0,0,0,0,0,0,0,0,0,0,0,0,0,0,0,0,0,0,0,0,0,0,0,0,0,0,0,0,0,0,0,0,0,0,0,0,0,0,0,0,0,0,0,0,0,0,0,0,0,0,0,0,0,0,0,0,0,0,-0.3504,-0.3504,0,-0.3443,-0.3443,-0.3442,-0.3369,-0.3368,-0.3367,-0.3366,-0.3208,-0.3205,-0.3201,0,0,0,0,0,0,0,0,0,0,0,0,0,-0.3457,-0.3458,-0.3504,-0.3504,-0.3503,-0.3444,-0.3442,-0.3441,-0.3369,-0.3368,-0.3367,-0.3366,-0.3209,-0.3205,-0.3201,0,0,0,0,0,0,0,0,0,0,0,0,0,-0.3443,-0.3459,-0.3505,-0.3462,-0.3458,-0.3444,-0.3442,-0.3441,-0.3369,-0.3368,-0.3367,-0.3365,-0.3211,-0.3206,-0.3201,-0.3196,0,0,-0.3185,-0.3183,0,0,0,0,0,0,0,0,-0.3444,-0.3444,-0.3469,-0.3465,-0.346,-0.3415,-0.3368,-0.3355,-0.337,-0.34,-0.3366,-0.3365,-0.3271,-0.3261,-0.325,-0.3189,-0.3182,-0.3185,-0.3182,-0.3179,-0.3178,0,0,0,0,0,0,0,-0.3445,-0.3446,-0.3478,-0.3468,-0.3463,-0.3411,-0.3408,-0.3365,-0.334,-0.3397,-0.3393,-0.339,-0.3267,-0.3255,-0.3246,-0.318,-0.3185,-0.318,-0.3177,-0.3175,-0.3151,-0.3153,0,0,0,0,0,0,-0.3465,-0.3448,-0.348,-0.3476,-0.3451,-0.3414,-0.341,-0.3429,-0.3342,-0.333,-0.3391,-0.3387,-0.3265,-0.3252,-0.324,-0.3257,-0.3179,-0.3175,-0.3172,-0.3149,-0.3151,-0.3154,0,0,0,0,0,0,-0.3464,-0.3469,-0.3482,-0.3461,-0.3459,-0.3417,-0.3437,-0.3428,-0.3415,-0.3339,-0.3324,-0.3388,-0.3263,-0.3247,-0.3215,-0.3249,-0.3172,-0.3168,-0.3146,-0.3149,-0.3153,-0.3273,0,0,0,0,0,0,-0.3464,-0.347,-0.3484,-0.3463,-0.3461,-0.3488,-0.3438,-0.3428,-0.3417,-0.341,-0.3331,-0.3315,-0.3261,-0.3223,-0.321,-0.324,-0.3164,-0.3143,-0.3147,-0.3152,-0.3266,-0.328,-0.3292,0,0,0,0,0,-0.3462,-0.3492,-0.3486,-0.3489,-0.3485,-0.3489,-0.3484,-0.3445,-0.3418,-0.3426,-0.3374,-0.3318,-0.3243,-0.3221,-0.3205,-0.3234,-0.3141,-0.3146,-0.3151,-0.326,-0.3277,-0.3292,0,0,0,0,0,0,-0.3466,-0.3487,-0.3479,-0.351,-0.3507,-0.3478,-0.3477,-0.3456,-0.3422,-0.3407,-0.3334,-0.3316,-0.3309,-0.3259,-0.3237,-0.3246,-0.3188,-0.3191,-0.3276,-0.3292,-0.3305,-0.3314,-0.316,0,0,0,0,0,-0.348,-0.3514,-0.3514,-0.3536,-0.3539,-0.351,-0.3504,-0.3484,-0.3454,-0.3437,-0.3384,-0.3339,-0.3322,-0.3295,-0.3265,-0.3255,-0.3216,-0.3271,-0.3284,-0.3296,-0.3296,-0.3278,-0.3289,-0.3172,-0.3172,-0.3172,0,0,-0.3488,-0.3502,-0.352,-0.354,-0.3529,-0.3542,-0.3502,-0.3503,-0.3511,-0.3425,-0.3409,-0.338,-0.3333,-0.3333,-0.3325,-0.329,-0.3314,-0.3302,-0.3312,-0.3306,-0.3285,-0.3296,-0.3305,-0.3175,-0.3175,-0.3174,0,0,-0.3513,-0.3535,-0.3564,-0.3573,-0.3573,-0.3564,-0.3572,-0.3551,-0.354,-0.3531,-0.3488,-0.3486,-0.3426,-0.3419,-0.3404,-0.3474,-0.3391,-0.3462,-0.352,-0.3504,-0.3513,-0.352,-0.3503,-0.3507,-0.3459,-0.346,-0.346,0,-0.3517,-0.3551,-0.3569,-0.3592,-0.3597,-0.3582,-0.3598,-0.36,-0.357,-0.3573,-0.3538,-0.3515,-0.3476,-0.3503,-0.3528,-0.3504,-0.3468,-0.3461,-0.352,-0.3526,-0.3531,-0.3511,-0.3515,-0.3466,-0.3465,-0.3465,-0.3464,0,-0.3551,-0.358,-0.3596,-0.3629,-0.3646,-0.3657,-0.3668,-0.3676,-0.3659,-0.3655,-0.3674,-0.3639,-0.362,-0.3628,-0.3589,-0.3626,-0.3581,-0.3545,-0.3475,-0.355,-0.3525,-0.3526,-0.3475,-0.3473,-0.3471,-0.347,0,0,-0.3539,-0.3608,-0.3607,-0.3637,-0.3661,-0.3684,-0.3714,-0.374,-0.3767,-0.3754,-0.3782,-0.3784,-0.3763,-0.3748,-0.372,-0.3713,-0.3732,-0.364,-0.3636,-0.3617,-0.3683,-0.3458,-0.3437,-0.3688,-0.3689,-0.369,-0.3655,0,-0.3543,-0.3603,-0.363,-0.3682,-0.3714,-0.3732,-0.377,-0.3801,-0.381,-0.3837,-0.384,-0.3852,-0.3811,-0.3805,-0.3798,-0.3741,-0.3737,-0.3743,-0.3618,-0.3615,-0.34,-0.3432,-0.3209,-0.3141,-0.3656,-0.3656,-0.3656,0,-0.3539,-0.3589,-0.3639,-0.3728,-0.3742,-0.3773,-0.3834,-0.3865,-0.3914,-0.3922,-0.3942,-0.3929,-0.3939,-0.3887,-0.3836,-0.383,-0.3768,-0.3727,-0.3724,-0.3466,-0.339,-0.3147,-0.3123,-0.3021,-0.3658,-0.3657,-0.3657,0,-0.3506,-0.359,-0.3633,-0.3657,-0.3751,-0.378,-0.3823,-0.3882,-0.3906,-0.3969,-0.3977,-0.3999,-0.3968,-0.3929,-0.3823,-0.3826,-0.3743,-0.3737,-0.3493,-0.3478,-0.3238,-0.3197,-0.3086,-0.3709,-0.371,-0.371,-0.371,0,-0.3476,-0.3519,-0.3627,-0.365,-0.3712,-0.3786,-0.3834,-0.3886,-0.3942,-0.3959,-0.4006,-0.3993,-0.3964,-0.3903,-0.3844,-0.3639,-0.3751,-0.3497,-0.3445,-0.3273,-0.3238,-0.3093,-0.3153,-0.3708,-0.3709,-0.3709,-0.3709,0,-0.3417,-0.3475,-0.355,-0.3663,-0.369,-0.3736,-0.3812,-0.3846,-0.3915,-0.3931,-0.3943,-0.3958,-0.3864,-0.3822,-0.3733,-0.3602,-0.3387,-0.3398,-0.3189,-0.3109,-0.2742,-0.2818,-0.272,-0.2656,-0.3124,-0.3118,-0.3113,0,-0.3393,-0.3428,-0.3543,-0.3558,-0.3598,-0.3668,-0.3695,-0.38,-0.3826,-0.388,-0.3871,-0.3816,-0.3726,-0.3519,-0.3292,-0.3126,-0.3176,-0.2826,-0.2784,-0.2669,-0.2721,-0.2814,-0.2778,-0.2548,-0.2538,-0.2531,-0.2525,0,-0.3348,-0.3388,-0.3427,-0.347,-0.3502,-0.3554,-0.361,-0.3634,-0.3728,-0.3734,-0.3695,-0.3636,-0.3393,-0.3048,-0.2799,-0.2698,-0.2702,-0.2657,-0.2602,-0.2297,-0.2334,-0.226,-0.265,-0.2457,-0.2464,-0.2469,-0.2473,-0.2475,-0.3291,-0.3298,-0.3326,-0.3352,-0.3384,-0.34,-0.3386,-0.344,-0.344,-0.3369,-0.3418,-0.3157,-0.2802,-0.2378,-0.2288,-0.1906,-0.2178,-0.1818,-0.1939,-0.2057,-0.1924,-0.2142,-0.1836,-0.1839,-0.1842,-0.1844,-0.1846,0,-0.3191,-0.3185,-0.3204,-0.3205,-0.3177,-0.3248,-0.3278,-0.321,-0.3134,-0.2975,-0.2859,-0.2277,-0.1956,-0.1699,-0.1283,-0.1188,-0.1252,-0.1224,-0.1339,-0.1352,-0.1549,-0.1442,-0.0955,-0.0955,-0.0955,-0.0956,-0.0956,-0.0956,-0.3121,-0.3071,-0.3076,-0.2973,-0.2976,-0.2877,-0.2858,-0.2768,-0.2592,-0.2137,-0.1693,-0.1419,-0.1141,-0.1025,-0.0834,-0.0819,-0.0894,-0.088,-0.1026,-0.1173,-0.1239,-0.1303,-0.1208,-0.068,-0.0681,-0.0707,-0.0707,-0.0707]},{"header":{"parameterUnit":"m.s-1","parameterCategory":2,"la1":30.2991,"la2":30.254,"lo1":-89.0895,"lo2":-89.0444,"dy":0.0017,"dx":0.0017,"nx":28,"ny":28,"refTime":"2024-06-25T03:00:00:Z","depth":"0","parameterNumber":3,"parameterNumberName":"V-component_of_CURRENTS"},"data":[0,0,0,0,0,0,0,0,0,0,0,0,0,0,0,0,0,0,0,0,0,0,0,0,0,0,0,0,0,0,0,0,0,0,0,0,0,0,0,0,0,0,0,0,0,0,0,0,0,0,0,0,0,0,0,0,0,0,-0.1464,-0.1464,0,-0.1412,-0.1412,-0.1411,-0.1409,-0.141,-0.141,-0.1411,-0.1301,-0.1298,-0.1294,0,0,0,0,0,0,0,0,0,0,0,0,0,-0.1509,-0.1509,-0.1464,-0.1464,-0.1463,-0.1412,-0.1412,-0.1411,-0.1409,-0.141,-0.141,-0.1411,-0.1302,-0.1298,-0.1294,0,0,0,0,0,0,0,0,0,0,0,0,0,-0.1477,-0.1509,-0.1464,-0.1455,-0.1454,-0.1413,-0.1412,-0.1411,-0.1409,-0.141,-0.1411,-0.1411,-0.1304,-0.1299,-0.1294,-0.1245,0,0,-0.1278,-0.1276,0,0,0,0,0,0,0,0,-0.1479,-0.1476,-0.1457,-0.1456,-0.1454,-0.1418,-0.1387,-0.1352,-0.1409,-0.1427,-0.1411,-0.1412,-0.1334,-0.1326,-0.1316,-0.1239,-0.1235,-0.1277,-0.1274,-0.1272,-0.127,0,0,0,0,0,0,0,-0.1482,-0.1478,-0.1444,-0.1457,-0.1455,-0.1436,-0.1433,-0.1381,-0.1375,-0.1425,-0.1425,-0.1418,-0.1333,-0.1321,-0.1313,-0.1233,-0.1277,-0.1273,-0.127,-0.1268,-0.1092,-0.109,0,0,0,0,0,0,-0.1488,-0.148,-0.1446,-0.1443,-0.1468,-0.1435,-0.1431,-0.1429,-0.1377,-0.137,-0.1417,-0.1418,-0.133,-0.1319,-0.1309,-0.1265,-0.1272,-0.1267,-0.1264,-0.1093,-0.1091,-0.109,0,0,0,0,0,0,-0.149,-0.1486,-0.1448,-0.1459,-0.1453,-0.1433,-0.143,-0.1428,-0.1421,-0.1372,-0.1364,-0.1414,-0.133,-0.1317,-0.1262,-0.126,-0.1265,-0.126,-0.1095,-0.1093,-0.1091,-0.1165,0,0,0,0,0,0,-0.1491,-0.1487,-0.1486,-0.146,-0.1453,-0.1431,-0.1429,-0.1426,-0.1415,-0.1415,-0.1366,-0.1357,-0.133,-0.127,-0.1257,-0.1253,-0.1256,-0.1097,-0.1094,-0.1091,-0.1164,-0.1165,-0.1166,0,0,0,0,0,-0.1493,-0.1495,-0.1487,-0.1482,-0.1454,-0.1431,-0.1425,-0.1414,-0.1414,-0.1411,-0.1372,-0.1359,-0.1242,-0.1264,-0.1249,-0.1244,-0.1099,-0.1095,-0.1092,-0.1164,-0.1165,-0.1166,0,0,0,0,0,0,-0.1518,-0.1494,-0.1485,-0.148,-0.1458,-0.1431,-0.1422,-0.1414,-0.1382,-0.1379,-0.1339,-0.1326,-0.1277,-0.1238,-0.1264,-0.1179,-0.1167,-0.116,-0.1227,-0.1227,-0.1228,-0.1265,-0.1252,0,0,0,0,0,-0.1521,-0.1515,-0.1488,-0.1483,-0.147,-0.1444,-0.1433,-0.1425,-0.1393,-0.1382,-0.1344,-0.1294,-0.1247,-0.1223,-0.1171,-0.1124,-0.1107,-0.1106,-0.1107,-0.1109,-0.1124,-0.1082,-0.1082,-0.1078,-0.1078,-0.1078,0,0,-0.153,-0.1514,-0.1512,-0.1487,-0.1466,-0.1463,-0.144,-0.1423,-0.1427,-0.137,-0.135,-0.1293,-0.1233,-0.1187,-0.1161,-0.1158,-0.1101,-0.1104,-0.1107,-0.1122,-0.1078,-0.1079,-0.108,-0.1076,-0.1076,-0.1077,0,0,-0.1549,-0.1527,-0.1531,-0.1516,-0.1487,-0.147,-0.1468,-0.1434,-0.1424,-0.1387,-0.135,-0.1296,-0.1219,-0.1186,-0.1158,-0.1126,-0.1106,-0.1098,-0.1139,-0.1097,-0.1098,-0.1099,-0.1097,-0.1098,-0.1102,-0.1102,-0.1102,0,-0.1566,-0.1565,-0.1528,-0.1529,-0.1524,-0.1479,-0.149,-0.147,-0.1425,-0.141,-0.1387,-0.1276,-0.1225,-0.1184,-0.1176,-0.1134,-0.1117,-0.115,-0.1104,-0.1104,-0.1104,-0.1101,-0.11,-0.1105,-0.1104,-0.1104,-0.1104,0,-0.1589,-0.159,-0.1587,-0.1579,-0.1567,-0.1562,-0.1532,-0.1512,-0.1482,-0.1456,-0.1397,-0.1319,-0.1259,-0.1225,-0.1194,-0.1161,-0.1154,-0.1114,-0.1117,-0.111,-0.1106,-0.1104,-0.1109,-0.1108,-0.1107,-0.1106,0,0,-0.163,-0.1612,-0.1612,-0.1626,-0.1594,-0.1595,-0.1582,-0.1562,-0.1565,-0.1492,-0.1486,-0.1387,-0.1339,-0.1302,-0.1244,-0.1207,-0.1193,-0.1168,-0.1164,-0.1196,-0.1132,-0.0972,-0.0955,-0.1146,-0.1145,-0.1145,-0.1139,0,-0.1664,-0.169,-0.1664,-0.1694,-0.1708,-0.1665,-0.1662,-0.1635,-0.1598,-0.1575,-0.1486,-0.1442,-0.1372,-0.1339,-0.1292,-0.1212,-0.1187,-0.1201,-0.1108,-0.1106,-0.0989,-0.0946,-0.0766,-0.073,-0.1137,-0.1137,-0.1136,0,-0.1701,-0.1716,-0.1752,-0.1764,-0.1764,-0.1771,-0.1763,-0.1756,-0.1704,-0.1667,-0.1603,-0.1533,-0.1462,-0.1401,-0.1284,-0.1295,-0.1228,-0.1167,-0.1165,-0.099,-0.094,-0.0793,-0.071,-0.0477,-0.1133,-0.1133,-0.1134,0,-0.1764,-0.1782,-0.1818,-0.1822,-0.1821,-0.1826,-0.1819,-0.1781,-0.1773,-0.1726,-0.17,-0.161,-0.1548,-0.1451,-0.1307,-0.1299,-0.1187,-0.1158,-0.0963,-0.0954,-0.0767,-0.074,-0.0467,-0.109,-0.109,-0.109,-0.109,0,-0.1815,-0.1851,-0.1853,-0.1877,-0.1918,-0.1892,-0.1916,-0.1893,-0.1854,-0.1844,-0.1751,-0.1711,-0.155,-0.1453,-0.1346,-0.1135,-0.1211,-0.0965,-0.0923,-0.0785,-0.076,-0.0521,-0.0498,-0.109,-0.109,-0.109,-0.109,0,-0.1883,-0.1879,-0.1935,-0.1947,-0.1951,-0.1984,-0.1971,-0.1983,-0.1933,-0.192,-0.1898,-0.1777,-0.1625,-0.1472,-0.1309,-0.1151,-0.0839,-0.0915,-0.0776,-0.0713,-0.0262,-0.0253,-0.005,0.0082,-0.0687,-0.0682,-0.0679,0,-0.192,-0.1957,-0.1996,-0.2023,-0.2031,-0.2059,-0.2068,-0.2029,-0.203,-0.1952,-0.1947,-0.1792,-0.1686,-0.1378,-0.1045,-0.0802,-0.0695,-0.049,-0.041,-0.0189,-0.0151,-0.0176,-0.0083,-0.0224,-0.0217,-0.0211,-0.0206,0,-0.2,-0.2014,-0.205,-0.2107,-0.2134,-0.2166,-0.2173,-0.2174,-0.2121,-0.208,-0.1996,-0.1908,-0.1533,-0.1112,-0.0732,-0.0566,-0.027,-0.0359,-0.0152,0.023,0.0239,0.0372,-0.0325,-0.0155,-0.016,-0.0164,-0.0166,-0.0169,-0.2055,-0.2099,-0.2139,-0.2193,-0.2229,-0.2262,-0.2263,-0.2235,-0.2211,-0.203,-0.1978,-0.1627,-0.1091,-0.0488,-0.033,0.0314,0.0118,0.051,0.0489,0.0434,0.0635,0.0048,0.0296,0.0293,0.0291,0.0289,0.0288,0,-0.2115,-0.2155,-0.2217,-0.2279,-0.2334,-0.2326,-0.2321,-0.2274,-0.2208,-0.1845,-0.1664,-0.0828,-0.0319,0.0207,0.0954,0.1176,0.1171,0.1266,0.1285,0.133,0.0832,0.0938,0.1367,0.1367,0.1367,0.1367,0.1366,0.1366,-0.2146,-0.2216,-0.2249,-0.2353,-0.2393,-0.2409,-0.2389,-0.2259,-0.1967,-0.1307,-0.0614,-0.0107,0.063,0.1263,0.1834,0.1871,0.1997,0.1951,0.196,0.1652,0.158,0.1511,0.1628,0.2195,0.2195,0.254,0.2544,0.2546]}],[{"header":{"parameterUnit":"m.s-1","parameterCategory":2,"la1":30.2991,"la2":30.254,"lo1":-89.0895,"lo2":-89.0444,"dy":0.0017,"dx":0.0017,"nx":28,"ny":28,"refTime":"2024-06-25T03:00:00:Z","depth":"2","parameterNumber":2,"parameterNumberName":"U-component_of_CURRENTS"},"data":[0,0,0,0,0,0,0,0,0,0,0,0,0,0,0,0,0,0,0,0,0,0,0,0,0,0,0,0,0,0,0,0,0,0,0,0,0,0,0,0,0,0,0,0,0,0,0,0,0,0,0,0,0,0,0,0,0,0,-0.1985,-0.1984,0,-0.2022,-0.2023,-0.2024,-0.2126,-0.2127,-0.2129,-0.213,-0.2243,-0.2244,-0.2246,0,0,0,0,0,0,0,0,0,0,0,0,0,-0.2002,-0.2001,-0.1985,-0.1984,-0.1984,-0.2022,-0.2023,-0.2024,-0.2125,-0.2127,-0.2129,-0.2131,-0.2242,-0.2244,-0.2246,0,0,0,0,0,0,0,0,0,0,0,0,0,-0.2019,-0.2001,-0.1985,-0.2034,-0.2038,-0.2022,-0.2023,-0.2025,-0.2125,-0.2127,-0.213,-0.2132,-0.2242,-0.2244,-0.2246,-0.2214,0,0,-0.2253,-0.2254,0,0,0,0,0,0,0,0,-0.2018,-0.2019,-0.2027,-0.203,-0.2035,-0.2065,-0.207,-0.2089,-0.2124,-0.2099,-0.213,-0.2133,-0.2184,-0.2191,-0.2202,-0.222,-0.2225,-0.2254,-0.2255,-0.2256,-0.2257,0,0,0,0,0,0,0,-0.2016,-0.2018,-0.2007,-0.2026,-0.2031,-0.2054,-0.206,-0.2074,-0.2135,-0.2102,-0.2107,-0.21,-0.2188,-0.22,-0.2206,-0.2226,-0.2253,-0.2256,-0.2257,-0.2258,-0.2281,-0.228,0,0,0,0,0,0,-0.1995,-0.2016,-0.2005,-0.2007,-0.2024,-0.2051,-0.2058,-0.2059,-0.2134,-0.2144,-0.2098,-0.2104,-0.2194,-0.2203,-0.221,-0.2261,-0.2256,-0.2258,-0.2259,-0.2282,-0.2281,-0.228,0,0,0,0,0,0,-0.1995,-0.1994,-0.2004,-0.2007,-0.2009,-0.2048,-0.2048,-0.2058,-0.2108,-0.2128,-0.2143,-0.2141,-0.2197,-0.2207,-0.2226,-0.2263,-0.2259,-0.2261,-0.2283,-0.2281,-0.228,-0.231,0,0,0,0,0,0,-0.1996,-0.1994,-0.2005,-0.2005,-0.2007,-0.2019,-0.2046,-0.2057,-0.2094,-0.2105,-0.2169,-0.218,-0.2199,-0.2222,-0.2229,-0.2267,-0.2263,-0.2284,-0.2282,-0.2281,-0.231,-0.231,-0.231,0,0,0,0,0,-0.1996,-0.1971,-0.2005,-0.2004,-0.2016,-0.2019,-0.2024,-0.2064,-0.2094,-0.2119,-0.214,-0.218,-0.2218,-0.2223,-0.2231,-0.2271,-0.2284,-0.2283,-0.2281,-0.231,-0.231,-0.231,0,0,0,0,0,0,-0.1967,-0.1978,-0.2016,-0.1996,-0.2027,-0.2034,-0.2032,-0.2077,-0.2114,-0.2124,-0.2163,-0.2173,-0.2218,-0.2216,-0.222,-0.2266,-0.2261,-0.226,-0.228,-0.228,-0.228,-0.229,-0.2265,0,0,0,0,0,-0.1968,-0.1961,-0.1991,-0.1975,-0.1985,-0.2024,-0.2035,-0.2073,-0.209,-0.2113,-0.2143,-0.2169,-0.2206,-0.2221,-0.2246,-0.2255,-0.2258,-0.2283,-0.2283,-0.2284,-0.2292,-0.2312,-0.2315,-0.2274,-0.2274,-0.2274,0,0,-0.195,-0.195,-0.195,-0.1971,-0.1986,-0.2029,-0.2039,-0.2052,-0.2105,-0.2113,-0.2165,-0.218,-0.221,-0.2236,-0.2254,-0.2244,-0.229,-0.2281,-0.2282,-0.229,-0.231,-0.2315,-0.2319,-0.2273,-0.2273,-0.2273,0,0,-0.1917,-0.1913,-0.1927,-0.1969,-0.2003,-0.2014,-0.2032,-0.2063,-0.2097,-0.2144,-0.2163,-0.2178,-0.2233,-0.2242,-0.2265,-0.2268,-0.23,-0.2287,-0.2291,-0.231,-0.2314,-0.2318,-0.2307,-0.231,-0.2275,-0.2275,-0.2275,0,-0.1928,-0.1933,-0.193,-0.1982,-0.1996,-0.2021,-0.2062,-0.2102,-0.2142,-0.2154,-0.2171,-0.2227,-0.2244,-0.2281,-0.2279,-0.2276,-0.2281,-0.2298,-0.2313,-0.2318,-0.2321,-0.2309,-0.2312,-0.2276,-0.2276,-0.2276,-0.2276,0,-0.1946,-0.1969,-0.1961,-0.2038,-0.2055,-0.2071,-0.2122,-0.2149,-0.2177,-0.2219,-0.2263,-0.2264,-0.2296,-0.2303,-0.2302,-0.2329,-0.2322,-0.2326,-0.2323,-0.2328,-0.2314,-0.2316,-0.2278,-0.2277,-0.2277,-0.2277,0,0,-0.1923,-0.1977,-0.1986,-0.2023,-0.2084,-0.209,-0.2146,-0.2187,-0.2223,-0.2277,-0.2305,-0.2354,-0.2347,-0.2365,-0.2352,-0.2351,-0.2366,-0.2346,-0.2347,-0.2351,-0.2395,-0.2229,-0.2216,-0.2385,-0.2386,-0.2387,-0.2368,0,-0.1954,-0.2026,-0.2043,-0.2099,-0.2119,-0.2155,-0.2207,-0.2256,-0.2273,-0.2302,-0.2327,-0.2361,-0.2379,-0.2375,-0.2389,-0.2378,-0.2378,-0.237,-0.2375,-0.2375,-0.2241,-0.2215,-0.2037,-0.1992,-0.2371,-0.2371,-0.2371,0,-0.1973,-0.2006,-0.2067,-0.2106,-0.2122,-0.2183,-0.2203,-0.2253,-0.2307,-0.2329,-0.2364,-0.238,-0.24,-0.2397,-0.243,-0.2431,-0.2418,-0.2404,-0.2404,-0.2244,-0.2214,-0.2049,-0.1982,-0.2376,-0.2375,-0.2375,-0.2375,0,-0.1909,-0.2,-0.2024,-0.2062,-0.2142,-0.2177,-0.2212,-0.2266,-0.2281,-0.2327,-0.2325,-0.2392,-0.2405,-0.243,-0.2412,-0.2435,-0.2413,-0.2442,-0.2282,-0.2271,-0.2114,-0.2085,-0.2454,-0.2454,-0.2454,-0.2454,-0.2454,0,-0.1896,-0.1921,-0.2018,-0.2049,-0.2077,-0.2155,-0.2175,-0.2224,-0.2278,-0.2273,-0.233,-0.2301,-0.2419,-0.241,-0.2408,-0.2335,-0.2425,-0.2273,-0.2252,-0.2112,-0.2084,-0.242,-0.2417,-0.2454,-0.2454,-0.2454,-0.2454,0,-0.1821,-0.1892,-0.1918,-0.202,-0.2042,-0.2068,-0.2137,-0.2147,-0.2225,-0.2202,-0.2216,-0.2269,-0.2249,-0.2299,-0.2317,-0.2304,-0.2254,-0.2199,-0.2004,-0.1959,-0.2108,-0.2106,-0.2049,-0.2043,-0.2038,-0.2034,-0.203,0,-0.178,-0.1795,-0.1868,-0.1869,-0.1922,-0.197,-0.1981,-0.2091,-0.2083,-0.2134,-0.2093,-0.2112,-0.2041,-0.2,-0.1977,-0.1939,-0.2066,-0.1771,-0.1771,-0.2079,-0.2066,-0.2073,-0.2077,-0.1583,-0.1576,-0.157,-0.1565,0,-0.168,-0.172,-0.1739,-0.1762,-0.1781,-0.1777,-0.1815,-0.1825,-0.1923,-0.1921,-0.1884,-0.1844,-0.1774,-0.1646,-0.1609,-0.1564,-0.177,-0.1648,-0.2031,-0.1692,-0.1632,-0.1622,-0.1644,-0.1514,-0.152,-0.1523,-0.1526,-0.1528,-0.1577,-0.1569,-0.1605,-0.1616,-0.1615,-0.1594,-0.1555,-0.1602,-0.1597,-0.1604,-0.1641,-0.1534,-0.1518,-0.1331,-0.1254,-0.1228,-0.1362,-0.1356,-0.1378,-0.1405,-0.1334,-0.1265,-0.1066,-0.1068,-0.107,-0.1072,-0.1074,0,-0.1457,-0.1463,-0.1452,-0.1445,-0.1392,-0.1455,-0.1422,-0.1369,-0.1321,-0.1382,-0.1349,-0.1144,-0.1022,-0.1015,-0.0878,-0.0854,-0.0898,-0.0836,-0.0916,-0.0963,-0.1006,-0.092,-0.054,-0.0539,-0.0538,-0.0537,0,0,-0.1387,-0.1331,-0.1339,-0.1224,-0.122,-0.1112,-0.107,-0.1005,-0.1008,-0.0976,-0.0948,-0.1019,-0.0988,-0.0792,-0.0724,-0.0626,-0.0808,-0.0584,-0.1002,-0.1144,-0.1187,-0.1275,-0.1189,0,0,0,0,0]},{"header":{"parameterUnit":"m.s-1","parameterCategory":2,"la1":30.2991,"la2":30.254,"lo1":-89.0895,"lo2":-89.0444,"dy":0.0017,"dx":0.0017,"nx":28,"ny":28,"refTime":"2024-06-25T03:00:00:Z","depth":"2","parameterNumber":3,"parameterNumberName":"V-component_of_CURRENTS"},"data":[0,0,0,0,0,0,0,0,0,0,0,0,0,0,0,0,0,0,0,0,0,0,0,0,0,0,0,0,0,0,0,0,0,0,0,0,0,0,0,0,0,0,0,0,0,0,0,0,0,0,0,0,0,0,0,0,0,0,-0.0229,-0.0228,0,-0.0115,-0.0113,-0.0111,0.0001,0.0003,0.0004,0.0005,0.0243,0.0248,0.0254,0,0,0,0,0,0,0,0,0,0,0,0,0,-0.0278,-0.0278,-0.0229,-0.0228,-0.0227,-0.0115,-0.0113,-0.0111,0.0001,0.0003,0.0004,0.0005,0.0241,0.0248,0.0254,0,0,0,0,0,0,0,0,0,0,0,0,0,-0.0215,-0.0278,-0.0229,-0.0161,-0.0154,-0.0115,-0.0113,-0.011,0.0001,0.0003,0.0004,0.0006,0.0239,0.0247,0.0255,0.0274,0,0,0.028,0.0283,0,0,0,0,0,0,0,0,-0.0219,-0.0213,-0.0172,-0.0166,-0.0158,-0.0074,-0.0043,0.0023,0.0001,-0.0053,0.0005,0.0006,0.0144,0.016,0.0184,0.0285,0.0295,0.028,0.0285,0.0289,0.0291,0,0,0,0,0,0,0,-0.0223,-0.0217,-0.0179,-0.0172,-0.0163,-0.0112,-0.0101,-0.003,0.0042,-0.0048,-0.0041,-0.0036,0.015,0.0175,0.019,0.0299,0.028,0.0287,0.0292,0.0296,0.0447,0.0446,0,0,0,0,0,0,-0.0253,-0.0222,-0.0183,-0.0176,-0.0191,-0.0113,-0.0101,-0.0098,0.0039,0.0058,-0.0038,-0.0032,0.0161,0.0181,0.0199,0.0243,0.0289,0.0296,0.0301,0.0447,0.0446,0.0446,0,0,0,0,0,0,-0.0255,-0.0251,-0.0187,-0.02,-0.0189,-0.0115,-0.0112,-0.0097,-0.0054,0.0044,0.0068,-0.001,0.0163,0.0188,0.0227,0.0253,0.03,0.0307,0.0448,0.0447,0.0446,0.0323,0,0,0,0,0,0,-0.0256,-0.0252,-0.0254,-0.0202,-0.0189,-0.0166,-0.0114,-0.0096,-0.0058,-0.0047,0.0076,0.0098,0.0166,0.0214,0.0235,0.0265,0.0314,0.0449,0.0448,0.0446,0.0328,0.0318,0.0309,0,0,0,0,0,-0.0259,-0.0271,-0.0255,-0.025,-0.0197,-0.0167,-0.0155,-0.0094,-0.0058,-0.0047,0.0004,0.0096,0.0222,0.0218,0.0244,0.0277,0.045,0.0448,0.0447,0.0332,0.032,0.0309,0,0,0,0,0,0,-0.0289,-0.026,-0.0241,-0.0243,-0.021,-0.015,-0.0138,-0.0095,-0.0043,-0.0035,0.0067,0.0091,0.0149,0.0212,0.0206,0.0314,0.036,0.0363,0.0265,0.0254,0.0244,0.0238,0.032,0,0,0,0,0,-0.0304,-0.0307,-0.0266,-0.0269,-0.0257,-0.0196,-0.0174,-0.0138,-0.0091,-0.0064,0.0011,0.0088,0.0159,0.02,0.027,0.0312,0.0402,0.0355,0.0346,0.0337,0.0347,0.0454,0.0455,0.0439,0.0439,0.0439,0,0,-0.0316,-0.0303,-0.0303,-0.0276,-0.0245,-0.0237,-0.0177,-0.0155,-0.0136,-0.0047,-0.0005,0.0061,0.016,0.0207,0.0242,0.0264,0.0389,0.0335,0.0327,0.0342,0.0452,0.0454,0.0456,0.0438,0.0438,0.0439,0,0,-0.0358,-0.0334,-0.0353,-0.0331,-0.0302,-0.0267,-0.0263,-0.0209,-0.0169,-0.0138,-0.0065,-0.0013,0.0098,0.0158,0.021,0.0188,0.0336,0.0234,0.0184,0.0286,0.0288,0.0292,0.0412,0.0427,0.0227,0.0226,0.0226,0,-0.0373,-0.0389,-0.0352,-0.0362,-0.0349,-0.0285,-0.0295,-0.025,-0.0191,-0.0161,-0.0138,0.0009,0.0078,0.0156,0.0137,0.0172,0.0262,0.0217,0.0274,0.0279,0.0285,0.0408,0.0426,0.022,0.0221,0.0222,0.0222,0,-0.0426,-0.0431,-0.0439,-0.0432,-0.0415,-0.0412,-0.036,-0.0331,-0.028,-0.0227,-0.0145,-0.0072,0.0023,0.0053,0.0087,0.0166,0.0228,0.025,0.0302,0.0279,0.041,0.0431,0.0212,0.0214,0.0216,0.0217,0,0,-0.0475,-0.0477,-0.0478,-0.0483,-0.045,-0.0442,-0.0419,-0.037,-0.0338,-0.0267,-0.0212,-0.0121,-0.0062,-0.0003,0.0063,0.0131,0.0229,0.0195,0.0203,0.0313,0.0485,0.0382,0.0397,0.0267,0.027,0.0272,0.0561,0,-0.0523,-0.0565,-0.0546,-0.0567,-0.0579,-0.0519,-0.0497,-0.0443,-0.038,-0.0315,-0.0208,-0.0133,-0.0081,-0.0043,0.0037,0.0192,0.028,0.0151,0.0493,0.0504,0.0413,0.0415,0.036,0.0599,0.0583,0.0587,0.0589,0,-0.0581,-0.0598,-0.0641,-0.0629,-0.0626,-0.0626,-0.0576,-0.0546,-0.0439,-0.0383,-0.0286,-0.0191,-0.0063,-0.0037,0.0245,0.0168,0.0315,0.0426,0.0441,0.0405,0.0439,0.062,0.064,0.0627,0.0624,0.0621,0.0618,0,-0.0643,-0.066,-0.0698,-0.0695,-0.0674,-0.0672,-0.0649,-0.0571,-0.0533,-0.0425,-0.0383,-0.0201,-0.009,0.0103,0.0333,0.0307,0.0643,0.0645,0.0703,0.0701,0.075,0.0744,0.0838,0.0837,0.0837,0.0836,0.0835,0,-0.0704,-0.0728,-0.0731,-0.0748,-0.077,-0.0732,-0.0729,-0.0677,-0.0594,-0.0537,-0.042,-0.0335,-0.005,0.0165,0.0354,0.0601,0.0684,0.0706,0.076,0.0702,0.0688,0.0783,0.0772,0.0847,0.0844,0.0842,0.084,0,-0.077,-0.0773,-0.0812,-0.0808,-0.0807,-0.0823,-0.0792,-0.0773,-0.0695,-0.0619,-0.0585,-0.0371,-0.01,0.0174,0.0529,0.0632,0.0863,0.0929,0.0837,0.0868,0.0858,0.0838,0.103,0.1029,0.1028,0.1027,0.1026,0,-0.0807,-0.0839,-0.0866,-0.0885,-0.0889,-0.0901,-0.0897,-0.0831,-0.0805,-0.0642,-0.0604,-0.0344,-0.0146,0.0305,0.0548,0.0872,0.0902,0.0954,0.0847,0.084,0.0875,0.0857,0.0839,0.091,0.0908,0.0907,0.0906,0,-0.0863,-0.0877,-0.0901,-0.0956,-0.0975,-0.0986,-0.0976,-0.0965,-0.0858,-0.0767,-0.0581,-0.0412,-0.0029,0.0287,0.0625,0.0779,0.0879,0.0925,0.1019,0.08,0.0731,0.0762,0.075,0.0893,0.0895,0.0896,0.0896,0.0897,-0.0887,-0.0924,-0.0961,-0.1007,-0.1032,-0.1042,-0.1043,-0.0995,-0.0916,-0.0734,-0.0573,-0.0304,-0.0028,0.0422,0.0637,0.0799,0.0816,0.0859,0.0864,0.0871,0.0735,0.0659,0.0788,0.0789,0.0789,0.079,0.079,0,-0.0904,-0.0948,-0.1001,-0.1048,-0.1078,-0.1081,-0.1066,-0.103,-0.0923,-0.0705,-0.049,-0.0194,0.011,0.0379,0.0615,0.0749,0.0764,0.0756,0.0775,0.0785,0.0795,0.0656,0.069,0.069,0.069,0.069,0,0,-0.0911,-0.0965,-0.1001,-0.1063,-0.1095,-0.1111,-0.1096,-0.1003,-0.0862,-0.0622,-0.0416,-0.0147,0.0146,0.0295,0.0485,0.0602,0.065,0.0591,0.0655,0.0665,0.0673,0.0834,0.0627,0,0,0,0,0]}],[{"header":{"parameterUnit":"m.s-1","parameterCategory":2,"la1":30.2991,"la2":30.254,"lo1":-89.0895,"lo2":-89.0444,"dy":0.0017,"dx":0.0017,"nx":28,"ny":28,"refTime":"2024-06-25T03:00:00:Z","depth":"4","parameterNumber":2,"parameterNumberName":"U-component_of_CURRENTS"},"data":[0,0,0,0,0,0,0,0,0,0,0,0,0,0,0,0,0,0,0,0,0,0,0,0,0,0,0,0,0,0,0,0,0,0,0,0,0,0,0,0,0,0,0,0,0,0,0,0,0,0,0,0,0,0,0,0,0,0,-0.1202,-0.1203,0,-0.1268,-0.1268,-0.1269,-0.131,-0.131,-0.131,-0.1311,-0.1363,-0.1364,-0.1365,0,0,0,0,0,0,0,0,0,0,0,0,0,-0.1116,-0.1117,-0.1202,-0.1203,-0.1204,-0.1267,-0.1268,-0.1269,-0.1309,-0.131,-0.1311,-0.1311,-0.1362,-0.1364,-0.1365,0,0,0,0,0,0,0,0,0,0,0,0,0,-0.1162,-0.1117,-0.1202,-0.1234,-0.1238,-0.1267,-0.1268,-0.1269,-0.1309,-0.131,-0.1311,-0.1311,-0.1362,-0.1363,-0.1365,-0.136,0,0,-0.1369,-0.137,0,0,0,0,0,0,0,0,-0.1159,-0.1165,-0.1228,-0.1232,-0.1236,-0.1283,-0.1257,-0.13,-0.1309,-0.1279,-0.1311,-0.1312,-0.1336,-0.134,-0.1347,-0.1363,-0.1365,-0.1369,-0.137,-0.1371,-0.1371,0,0,0,0,0,0,0,-0.1156,-0.1162,-0.1226,-0.1229,-0.1234,-0.1246,-0.1253,-0.1265,-0.1301,-0.1282,-0.1286,-0.1297,-0.1338,-0.1346,-0.1349,-0.1366,-0.1369,-0.1371,-0.1371,-0.1372,-0.146,-0.1461,0,0,0,0,0,0,-0.1152,-0.1159,-0.1224,-0.1228,-0.1201,-0.1247,-0.1255,-0.1265,-0.1301,-0.1308,-0.1296,-0.1299,-0.1343,-0.1347,-0.1351,-0.1429,-0.1371,-0.1372,-0.1373,-0.1458,-0.146,-0.1462,0,0,0,0,0,0,-0.115,-0.1157,-0.1221,-0.1197,-0.1206,-0.1248,-0.1259,-0.1266,-0.13,-0.1313,-0.1319,-0.1326,-0.1344,-0.1349,-0.1389,-0.1428,-0.1373,-0.1374,-0.1457,-0.1459,-0.1461,-0.1534,0,0,0,0,0,0,-0.1147,-0.1156,-0.117,-0.1197,-0.1208,-0.1265,-0.1259,-0.1267,-0.1305,-0.131,-0.134,-0.1344,-0.1344,-0.1387,-0.1391,-0.1429,-0.1375,-0.1455,-0.1458,-0.146,-0.1529,-0.1538,-0.1545,0,0,0,0,0,-0.1144,-0.1164,-0.117,-0.1179,-0.1223,-0.1267,-0.1274,-0.1304,-0.1306,-0.1333,-0.1351,-0.1344,-0.1407,-0.139,-0.1394,-0.1433,-0.1453,-0.1457,-0.146,-0.1526,-0.1536,-0.1545,0,0,0,0,0,0,-0.1139,-0.1171,-0.1178,-0.1209,-0.1246,-0.1275,-0.1302,-0.1317,-0.1351,-0.1358,-0.1362,-0.1368,-0.1419,-0.1413,-0.1394,-0.1466,-0.143,-0.1434,-0.1478,-0.1488,-0.1496,-0.1481,-0.1376,0,0,0,0,0,-0.1141,-0.1163,-0.1198,-0.1225,-0.1244,-0.1274,-0.1297,-0.1321,-0.135,-0.1367,-0.1389,-0.1408,-0.143,-0.145,-0.1467,-0.1505,-0.1476,-0.1533,-0.1541,-0.1548,-0.1539,-0.153,-0.1536,-0.1473,-0.1473,-0.1472,0,0,-0.1148,-0.1168,-0.1182,-0.1226,-0.1252,-0.1293,-0.1291,-0.1339,-0.1377,-0.1365,-0.1427,-0.1439,-0.1446,-0.1494,-0.1516,-0.1498,-0.1552,-0.1552,-0.1558,-0.1544,-0.1534,-0.154,-0.1545,-0.1475,-0.1474,-0.1474,0,0,-0.117,-0.1189,-0.1217,-0.125,-0.1299,-0.1321,-0.1341,-0.1389,-0.1418,-0.1472,-0.1472,-0.1506,-0.1547,-0.156,-0.1568,-0.1628,-0.1594,-0.1641,-0.1675,-0.1667,-0.1672,-0.1676,-0.1651,-0.1652,-0.1647,-0.1648,-0.1648,0,-0.1177,-0.1211,-0.1235,-0.1273,-0.1302,-0.1337,-0.1379,-0.1416,-0.1474,-0.1496,-0.1505,-0.156,-0.1576,-0.1613,-0.1641,-0.1647,-0.1626,-0.1639,-0.1677,-0.168,-0.1682,-0.1656,-0.1656,-0.1651,-0.1651,-0.1651,-0.165,0,-0.1219,-0.1253,-0.1275,-0.1329,-0.1367,-0.141,-0.146,-0.1507,-0.1541,-0.157,-0.1625,-0.1644,-0.167,-0.1692,-0.1688,-0.1722,-0.1696,-0.1686,-0.1649,-0.1693,-0.1662,-0.1661,-0.1657,-0.1656,-0.1655,-0.1654,0,0,-0.1209,-0.1288,-0.1297,-0.1325,-0.1398,-0.143,-0.1499,-0.1559,-0.1594,-0.1654,-0.1688,-0.1743,-0.1745,-0.1753,-0.1757,-0.1759,-0.1772,-0.1736,-0.1734,-0.1706,-0.1741,-0.1634,-0.1622,-0.1768,-0.1768,-0.1768,-0.1714,0,-0.1233,-0.13,-0.134,-0.1407,-0.144,-0.1493,-0.1547,-0.1608,-0.1655,-0.17,-0.1727,-0.1763,-0.1771,-0.1784,-0.1793,-0.1777,-0.177,-0.1786,-0.1707,-0.1704,-0.1599,-0.1617,-0.1769,-0.1712,-0.1712,-0.1712,-0.1712,0,-0.1251,-0.1292,-0.1358,-0.1428,-0.1449,-0.15,-0.1574,-0.1629,-0.1698,-0.1732,-0.1773,-0.1788,-0.1818,-0.1807,-0.18,-0.1809,-0.1779,-0.1759,-0.1756,-0.1624,-0.1594,-0.1659,-0.1708,-0.1708,-0.1709,-0.1709,-0.1709,0,-0.1206,-0.1298,-0.1345,-0.1373,-0.1466,-0.1507,-0.156,-0.1637,-0.1674,-0.1745,-0.1767,-0.1807,-0.1813,-0.1804,-0.1781,-0.1792,-0.1741,-0.175,-0.162,-0.1611,-0.1692,-0.1688,-0.1722,-0.1722,-0.1722,-0.1722,-0.1722,0,-0.119,-0.1229,-0.1332,-0.1354,-0.1407,-0.1485,-0.154,-0.1601,-0.1672,-0.1696,-0.1772,-0.1773,-0.181,-0.1792,-0.1775,-0.1683,-0.1737,-0.1613,-0.1588,-0.1725,-0.1726,-0.1691,-0.1688,-0.172,-0.1721,-0.1721,-0.1721,0,-0.112,-0.1193,-0.1244,-0.1349,-0.1384,-0.1418,-0.1516,-0.1546,-0.1633,-0.1662,-0.1683,-0.1742,-0.1714,-0.1723,-0.1688,-0.1648,-0.1591,-0.1539,-0.1671,-0.1656,-0.147,-0.1472,-0.1396,-0.1392,-0.1388,-0.1385,-0.1383,0,-0.1084,-0.1109,-0.1217,-0.1243,-0.1291,-0.1359,-0.1396,-0.1506,-0.1532,-0.1619,-0.1611,-0.1623,-0.1641,-0.1499,-0.1537,-0.1481,-0.1463,-0.1436,-0.1469,-0.1452,-0.1436,-0.1443,-0.145,-0.1377,-0.1376,-0.1375,-0.1374,0,-0.1008,-0.1057,-0.1097,-0.1151,-0.12,-0.1249,-0.1315,-0.1325,-0.1432,-0.1518,-0.1484,-0.147,-0.1424,-0.1403,-0.1357,-0.1328,-0.1467,-0.1399,-0.1407,-0.1437,-0.1427,-0.1417,-0.1428,-0.1361,-0.1363,-0.1364,-0.1365,0,-0.0942,-0.0949,-0.1008,-0.1043,-0.1101,-0.1125,-0.1178,-0.1202,-0.1243,-0.1349,-0.1321,-0.1343,-0.1385,-0.1319,-0.1286,-0.1243,-0.1236,-0.1218,-0.1235,-0.125,-0.1231,-0.1199,-0.1028,0,0,0,0,0,-0.0874,-0.0874,-0.0895,-0.0933,-0.0986,-0.1021,-0.1114,-0.1172,-0.1271,-0.1202,-0.1263,-0.1215,-0.1173,-0.119,-0.1112,-0.1236,-0.125,-0.1146,-0.1242,-0.1292,-0.1306,-0.1301,0,0,0,0,0,0,-0.0827,-0.0848,-0.0856,-0.0833,-0.0835,-0.0885,-0.0942,-0.1017,-0.0992,-0.1088,-0.1055,-0.1135,-0.1095,-0.1167,-0.1075,-0.1083,-0.1122,-0.1169,-0.1166,-0.1283,-0.1297,-0.1308,-0.1308,0,0,0,0,0]},{"header":{"parameterUnit":"m.s-1","parameterCategory":2,"la1":30.2991,"la2":30.254,"lo1":-89.0895,"lo2":-89.0444,"dy":0.0017,"dx":0.0017,"nx":28,"ny":28,"refTime":"2024-06-25T03:00:00:Z","depth":"4","parameterNumber":3,"parameterNumberName":"V-component_of_CURRENTS"},"data":[0,0,0,0,0,0,0,0,0,0,0,0,0,0,0,0,0,0,0,0,0,0,0,0,0,0,0,0,0,0,0,0,0,0,0,0,0,0,0,0,0,0,0,0,0,0,0,0,0,0,0,0,0,0,0,0,0,0,-0.0248,-0.0247,0,-0.0203,-0.0203,-0.0202,-0.0173,-0.0173,-0.0173,-0.0173,-0.0146,-0.0145,-0.0145,0,0,0,0,0,0,0,0,0,0,0,0,0,-0.0274,-0.0274,-0.0248,-0.0247,-0.0247,-0.0203,-0.0203,-0.0202,-0.0173,-0.0173,-0.0173,-0.0173,-0.0146,-0.0145,-0.0145,0,0,0,0,0,0,0,0,0,0,0,0,0,-0.0249,-0.0274,-0.0248,-0.0228,-0.0226,-0.0203,-0.0203,-0.0202,-0.0173,-0.0173,-0.0173,-0.0173,-0.0146,-0.0145,-0.0145,-0.0143,0,0,-0.0142,-0.0141,0,0,0,0,0,0,0,0,-0.0251,-0.0248,-0.0231,-0.0229,-0.0227,-0.0194,-0.0202,-0.0183,-0.0173,-0.0192,-0.0173,-0.0172,-0.0164,-0.0162,-0.0153,-0.0141,-0.014,-0.0142,-0.0141,-0.0141,-0.0141,0,0,0,0,0,0,0,-0.0252,-0.025,-0.0229,-0.0231,-0.0228,-0.0209,-0.0206,-0.0198,-0.018,-0.0191,-0.0189,-0.0185,-0.0163,-0.0154,-0.0152,-0.014,-0.0142,-0.0141,-0.014,-0.014,-0.0092,-0.0091,0,0,0,0,0,0,-0.0261,-0.0251,-0.0231,-0.0228,-0.0239,-0.0209,-0.0205,-0.0204,-0.0179,-0.0175,-0.0185,-0.0184,-0.0155,-0.0153,-0.0151,-0.0128,-0.0141,-0.014,-0.0139,-0.0093,-0.0092,-0.0091,0,0,0,0,0,0,-0.0262,-0.026,-0.0233,-0.0239,-0.0234,-0.0209,-0.0208,-0.0203,-0.0194,-0.0175,-0.0171,-0.0181,-0.0155,-0.0152,-0.0141,-0.0128,-0.014,-0.0139,-0.0094,-0.0092,-0.0091,-0.0095,0,0,0,0,0,0,-0.0263,-0.0261,-0.0264,-0.024,-0.0234,-0.0221,-0.0208,-0.0203,-0.0193,-0.019,-0.017,-0.0167,-0.0155,-0.0143,-0.014,-0.0127,-0.0138,-0.0095,-0.0093,-0.0092,-0.0096,-0.0095,-0.0093,0,0,0,0,0,-0.0264,-0.0268,-0.0264,-0.0262,-0.024,-0.0221,-0.0217,-0.0198,-0.0193,-0.0189,-0.0174,-0.0168,-0.0132,-0.0142,-0.0139,-0.0125,-0.0095,-0.0094,-0.0092,-0.0097,-0.0095,-0.0093,0,0,0,0,0,0,-0.0276,-0.0265,-0.026,-0.026,-0.0244,-0.0217,-0.0213,-0.0201,-0.0185,-0.0185,-0.0167,-0.0163,-0.0145,-0.0136,-0.0147,-0.0105,-0.0109,-0.0107,-0.0114,-0.0112,-0.011,-0.0127,-0.0137,0,0,0,0,0,-0.0283,-0.0288,-0.0267,-0.0268,-0.0261,-0.0239,-0.023,-0.0217,-0.02,-0.0192,-0.0178,-0.0158,-0.0135,-0.0126,-0.011,-0.0095,-0.0072,-0.008,-0.0079,-0.0077,-0.0088,-0.0038,-0.0033,-0.0086,-0.0086,-0.0086,0,0,-0.0288,-0.0283,-0.0286,-0.0272,-0.0258,-0.0256,-0.0233,-0.0222,-0.0214,-0.0193,-0.0182,-0.0157,-0.0131,-0.0108,-0.0098,-0.0099,-0.0047,-0.0075,-0.0075,-0.0086,-0.0035,-0.003,-0.0026,-0.0084,-0.0085,-0.0085,0,0,-0.0307,-0.0297,-0.0309,-0.0299,-0.0284,-0.0268,-0.0268,-0.0242,-0.0224,-0.0211,-0.0185,-0.0153,-0.0134,-0.01,-0.0083,-0.0064,-0.0042,-0.0057,-0.0062,-0.0013,-0.0008,-0.0004,0.0045,0.0053,-0.0054,-0.0054,-0.0054,0,-0.0314,-0.0329,-0.0308,-0.0315,-0.0311,-0.0278,-0.0287,-0.0261,-0.0235,-0.022,-0.0211,-0.0153,-0.0126,-0.0086,-0.0073,-0.006,-0.0034,-0.0073,-0.0012,-0.0007,-0.0003,0.0047,0.0056,-0.0054,-0.0054,-0.0054,-0.0054,0,-0.0343,-0.0353,-0.0356,-0.0359,-0.0348,-0.0348,-0.0315,-0.0298,-0.0276,-0.0248,-0.0206,-0.0158,-0.0125,-0.0098,-0.0082,-0.0032,-0.0023,-0.0017,-0.0019,0.0002,0.0053,0.0063,-0.0054,-0.0054,-0.0054,-0.0054,0,0,-0.0364,-0.0378,-0.0379,-0.0394,-0.0373,-0.0371,-0.0351,-0.0325,-0.0316,-0.0266,-0.0244,-0.0176,-0.0145,-0.0123,-0.0082,-0.0032,0.0037,-0.0016,-0.0013,0.0027,0.0146,0.0133,0.0143,0.0051,0.0052,0.0053,0.0174,0,-0.0395,-0.0429,-0.0421,-0.0446,-0.0459,-0.0425,-0.0413,-0.0381,-0.0343,-0.0311,-0.0231,-0.0199,-0.0154,-0.0136,-0.0075,0.0004,0.006,0.0004,0.0123,0.0127,0.0108,0.0153,0.0058,0.0181,0.0184,0.0185,0.0186,0,-0.0429,-0.0448,-0.0485,-0.05,-0.0501,-0.0509,-0.0489,-0.0475,-0.0409,-0.0377,-0.0316,-0.026,-0.0169,-0.0142,0.0014,-0.0027,0.0054,0.012,0.0127,0.0117,0.0132,0.0154,0.0205,0.0203,0.0202,0.0201,0.02,0,-0.0465,-0.0493,-0.053,-0.0534,-0.054,-0.0547,-0.0545,-0.0499,-0.0485,-0.0421,-0.04,-0.0289,-0.0228,-0.0114,0.0038,0.0022,0.0207,0.0205,0.0273,0.0274,0.0249,0.0243,0.0308,0.0308,0.0308,0.0307,0.0307,0,-0.0501,-0.0531,-0.0556,-0.0575,-0.0612,-0.0597,-0.0617,-0.0593,-0.0554,-0.0528,-0.0443,-0.0385,-0.022,-0.009,0.0032,0.0193,0.0211,0.0278,0.0305,0.0247,0.0239,0.0257,0.025,0.0312,0.0311,0.031,0.0309,0,-0.0532,-0.0551,-0.0598,-0.0623,-0.0635,-0.0661,-0.0675,-0.0678,-0.064,-0.0602,-0.0582,-0.0442,-0.0266,-0.0095,0.0112,0.0186,0.0336,0.0386,0.0323,0.0343,0.0368,0.0359,0.0462,0.0463,0.0463,0.0464,0.0464,0,-0.0551,-0.058,-0.0637,-0.0669,-0.0686,-0.0722,-0.074,-0.0722,-0.0716,-0.0621,-0.0596,-0.0431,-0.0314,-0.0017,0.014,0.037,0.0392,0.0449,0.0396,0.0369,0.0385,0.0375,0.0366,0.0465,0.0465,0.0465,0.0465,0,-0.0579,-0.0606,-0.064,-0.0707,-0.0747,-0.0786,-0.0806,-0.0801,-0.0755,-0.0728,-0.0571,-0.0413,-0.0214,0.0003,0.0184,0.0341,0.0396,0.0454,0.0453,0.0404,0.0373,0.0387,0.0377,0.0467,0.0467,0.0467,0.0467,0,-0.0594,-0.0627,-0.0679,-0.0732,-0.079,-0.0817,-0.0828,-0.0787,-0.0766,-0.0653,-0.0592,-0.0373,-0.024,-0.001,0.0159,0.0311,0.0328,0.0339,0.0344,0.0344,0.0261,0.0202,0.0274,0,0,0,0,0,-0.0597,-0.0637,-0.0696,-0.0755,-0.0812,-0.0839,-0.0854,-0.0849,-0.0801,-0.0688,-0.0634,-0.0436,-0.0164,-0.0045,0.0109,0.0133,0.0325,0.0308,0.0332,0.0477,0.0475,0.0395,0,0,0,0,0,0,-0.0599,-0.066,-0.0692,-0.0759,-0.08,-0.0852,-0.0857,-0.0826,-0.0754,-0.0678,-0.0518,-0.0436,-0.0162,-0.0236,0.0106,0.0149,0.0172,0.044,0.0441,0.0478,0.0476,0.0474,0.0391,0,0,0,0,0]}]]